FW3182 Weather Reports


Display with metric or nautical units.
time (UTC)temp
F
wind
direction
speed
MPH
gust
MPH
rain 1hr
in
rain 24hr
in
rain mn
in
humidity
%
barometer
mb
20260508214204 79 196 3.0 9.0 0.00 0.00 0.00 44 1006.6
20260508213704 79 238 5.0 12.0 0.00 0.00 0.00 43 1006.7
20260508213204 79 193 5.0 13.0 0.00 0.00 0.00 42 1006.8
20260508212704 79 204 3.0 10.0 0.00 0.00 0.00 44 1006.7
20260508212204 79 101 2.0 12.0 0.00 0.00 0.00 46 1006.8
20260508211703 79 197 2.0 12.0 0.00 0.00 0.00 46 1007.0
20260508210703 78 249 2.0 8.0 0.00 0.00 0.00 45 1007.1
20260508210203 78 213 3.0 8.0 0.00 0.00 0.00 46 1007.1
20260508205704 78 222 3.0 9.0 0.00 0.00 0.00 47 1007.3
20260508205204 78 229 5.0 9.0 0.00 0.00 0.00 46 1007.5
20260508204704 78 233 2.0 5.0 0.00 0.00 0.00 46 1007.6
20260508204204 78 184 3.0 9.0 0.00 0.00 0.00 47 1007.7
20260508203704 78 253 3.0 7.0 0.00 0.00 0.00 46 1007.8
20260508202703 78 165 5.0 12.0 0.00 0.00 0.00 47 1008.0
20260508202203 78 202 5.0 12.0 0.00 0.00 0.00 46 1008.0
20260508201703 77 175 1.0 6.0 0.00 0.00 0.00 49 1008.1
20260508201203 78 199 4.0 10.0 0.00 0.00 0.00 47 1008.1
20260508200703 77 221 0.0 6.0 0.00 0.00 0.00 48 1008.3
20260508200203 77 181 2.0 6.0 0.00 0.00 0.00 48 1008.4
20260508195703 76 123 1.0 6.0 0.00 0.00 0.00 50 1008.5
20260508195203 76 160 2.0 9.0 0.00 0.00 0.00 49 1008.6
20260508194704 76 188 3.0 8.0 0.00 0.00 0.00 49 1008.7
20260508194204 75 235 2.0 8.0 0.00 0.00 0.00 49 1008.7
20260508193704 75 237 5.0 10.0 0.00 0.00 0.00 49 1008.8
20260508192704 76 168 1.0 6.0 0.00 0.00 0.00 51 1008.9
20260508191203 75 257 2.0 6.0 0.00 0.00 0.00 51 1009.1
20260508190703 75 198 2.0 8.0 0.00 0.00 0.00 52 1009.2
20260508185203 76 195 3.0 10.0 0.00 0.00 0.00 48 1009.4
20260508184703 76 219 3.0 9.0 0.00 0.00 0.00 49 1009.5
20260508184203 76 212 3.0 9.0 0.00 0.00 0.00 50 1009.6
20260508183704 75 220 2.0 8.0 0.00 0.00 0.00 51 1009.7
20260508183204 75 233 6.0 13.0 0.00 0.00 0.00 49 1009.9
20260508182704 75 182 5.0 12.0 0.00 0.00 0.00 50 1010.0
20260508182204 76 200 2.0 10.0 0.00 0.00 0.00 50 1010.0
20260508181704 75 238 2.0 10.0 0.00 0.00 0.00 52 1010.0
20260508181204 75 247 3.0 7.0 0.00 0.00 0.00 51 1010.0
20260508180703 75 174 0.0 12.0 0.00 0.00 0.00 56 1010.1
20260508180204 75 239 3.0 8.0 0.00 0.00 0.00 54 1010.3
20260508175703 75 195 3.0 12.0 0.00 0.00 0.00 54 1010.4
20260508175204 75 172 3.0 12.0 0.00 0.00 0.00 53 1010.6
20260508174703 74 137 2.0 7.0 0.00 0.00 0.00 56 1010.6
20260508174203 73 130 2.0 8.0 0.00 0.00 0.00 57 1010.6
20260508173204 72 221 4.0 9.0 0.00 0.00 0.00 57 1010.8
20260508172704 73 125 3.0 7.0 0.00 0.00 0.00 56 1010.9
20260508172204 72 148 4.0 6.0 0.00 0.00 0.00 57 1011.0
20260508171704 72 149 2.0 7.0 0.00 0.00 0.00 59 1011.1
20260508170203 71 171 5.0 8.0 0.00 0.00 0.00 59 1011.5
20260508165704 71 220 3.0 8.0 0.00 0.00 0.00 61 1011.6
20260508164704 70 230 4.0 7.0 0.00 0.00 0.00 60 1011.8
20260508164204 70 239 5.0 9.0 0.00 0.00 0.00 60 1011.8
20260508163703 70 211 7.0 14.0 0.00 0.00 0.00 58 1011.7
20260508163204 70 241 3.0 12.0 0.00 0.00 0.00 61 1011.8
20260508162704 69 200 2.0 9.0 0.00 0.00 0.00 62 1011.8
20260508162204 68 213 3.0 9.0 0.00 0.00 0.00 63 1011.9
20260508161703 68 204 6.0 16.0 0.00 0.00 0.00 62 1012.0
20260508161204 68 215 5.0 9.0 0.00 0.00 0.00 63 1012.1
20260508160703 68 150 2.0 10.0 0.00 0.00 0.00 63 1012.2
20260508160204 67 245 2.0 7.0 0.00 0.00 0.00 66 1012.3
20260508155704 67 218 4.0 10.0 0.00 0.00 0.00 65 1012.4
20260508155203 67 177 2.0 9.0 0.00 0.00 0.00 66 1012.4
20260508154703 67 217 5.0 12.0 0.00 0.00 0.00 64 1012.6
20260508154204 66 184 3.0 8.0 0.00 0.00 0.00 66 1012.6
20260508153703 66 158 5.0 10.0 0.00 0.00 0.00 66 1012.7
20260508153204 66 173 6.0 12.0 0.00 0.00 0.00 65 1012.8
20260508152704 65 212 2.0 14.0 0.00 0.00 0.00 66 1012.8
20260508152203 65 200 4.0 12.0 0.00 0.00 0.00 66 1012.8
20260508151703 65 194 3.0 12.0 0.00 0.00 0.00 67 1012.8
20260508151204 65 213 3.0 10.0 0.00 0.00 0.00 68 1012.9
20260508150204 64 208 3.0 10.0 0.00 0.00 0.00 70 1012.9
20260508145704 64 233 3.0 9.0 0.00 0.00 0.00 70 1013.0
20260508145203 63 225 3.0 9.0 0.00 0.00 0.00 71 1013.0
20260508144703 63 227 5.0 8.0 0.00 0.00 0.00 71 1013.0
20260508144204 63 259 2.0 5.0 0.00 0.00 0.00 73 1013.0
20260508142703 61 170 3.0 7.0 0.00 0.00 0.00 76 1013.0
20260508142204 60 225 1.0 5.0 0.00 0.00 0.00 78 1013.0
20260508141704 59 208 0.0 3.0 0.00 0.00 0.00 78 1013.0
20260508141203 59 197 4.0 9.0 0.00 0.00 0.00 77 1013.1
20260508140704 58 199 3.0 7.0 0.00 0.00 0.00 78 1013.0
20260508140203 58 188 3.0 7.0 0.00 0.00 0.00 78 1013.1
20260508135704 57 209 2.0 8.0 0.00 0.00 0.00 78 1013.2
20260508135204 57 172 2.0 5.0 0.00 0.00 0.00 78 1013.2
20260508134704 57 134 2.0 5.0 0.00 0.00 0.00 79 1013.2
20260508134204 57 200 2.0 3.0 0.00 0.00 0.00 79 1013.3
20260508132703 55 188 2.0 5.0 0.00 0.00 0.00 79 1013.3
20260508132203 56 196 2.0 5.0 0.00 0.00 0.00 79 1013.3
20260508131704 56 194 1.0 2.0 0.00 0.00 0.00 79 1013.3
20260508131204 56 204 0.0 2.0 0.00 0.00 0.00 80 1013.4
20260508130703 56 197 0.0 0.0 0.00 0.00 0.00 83 1013.5
20260508130203 55 210 0.0 0.0 0.00 0.00 0.00 84 1013.5
20260508125704 53 225 0.0 0.0 0.00 0.00 0.00 86 1013.6
20260508125204 52 226 0.0 2.0 0.00 0.00 0.00 86 1013.6
20260508124703 52 130 0.0 1.0 0.00 0.00 0.00 87 1013.5
20260508124204 51 74 0.0 0.0 0.00 0.00 0.00 89 1013.4
20260508123704 50 83 0.0 2.0 0.00 0.00 0.00 89 1013.4
20260508122704 49 82 0.0 1.0 0.00 0.00 0.00 91 1013.3
20260508122203 48 86 0.0 1.0 0.00 0.00 0.00 92 1013.3
20260508121703 47 89 0.0 1.0 0.00 0.00 0.00 93 1013.3
20260508121204 47 88 0.0 1.0 0.00 0.00 0.00 93 1013.2
20260508120704 46 84 0.0 1.0 0.00 0.00 0.00 93 1013.2
20260508120204 46 94 0.0 1.0 0.00 0.00 0.00 94 1013.1
20260508115703 46 104 0.0 1.0 0.00 0.00 0.00 94 1013.1
20260508115204 46 123 0.0 0.0 0.00 0.00 0.00 94 1013.1
20260508114703 45 120 0.0 1.0 0.00 0.00 0.00 94 1013.1
20260508114203 45 111 0.0 1.0 0.00 0.00 0.00 94 1013.1
20260508113704 45 111 0.0 0.0 0.00 0.00 0.00 95 1013.1
20260508113204 45 112 0.0 1.0 0.00 0.00 0.00 95 1013.0
20260508112703 45 122 0.0 1.0 0.00 0.00 0.00 95 1013.0
20260508112204 45 123 0.0 1.0 0.00 0.00 0.00 95 1012.9
20260508111203 44 123 0.0 1.0 0.00 0.00 0.00 94 1012.9
20260508110703 44 123 0.0 0.0 0.00 0.00 0.00 94 1012.9
20260508110204 44 123 0.0 0.0 0.00 0.00 0.00 93 1012.8
20260508105704 44 123 0.0 0.0 0.00 0.00 0.00 93 1012.9
20260508105203 44 123 0.0 0.0 0.00 0.00 0.00 92 1012.9
20260508104704 45 123 0.0 0.0 0.00 0.00 0.00 92 1012.9
20260508104204 45 123 0.0 0.0 0.00 0.00 0.00 92 1012.8
20260508103703 45 123 0.0 0.0 0.00 0.00 0.00 92 1012.9
20260508103204 45 123 0.0 0.0 0.00 0.00 0.00 92 1012.8
20260508102703 46 123 0.0 0.0 0.00 0.00 0.00 92 1012.7
20260508102204 46 123 0.0 0.0 0.00 0.00 0.00 92 1012.8
20260508101703 46 123 0.0 1.0 0.00 0.00 0.00 92 1012.8
20260508100703 46 123 0.0 0.0 0.00 0.00 0.00 91 1012.7
20260508100204 46 86 0.0 0.0 0.00 0.00 0.00 91 1012.6
20260508095704 46 86 0.0 0.0 0.00 0.00 0.00 91 1012.6
20260508095204 47 81 0.0 0.0 0.00 0.00 0.00 91 1012.6
20260508094204 47 81 0.0 0.0 0.00 0.00 0.00 91 1012.5
20260508093703 47 112 0.0 0.0 0.00 0.00 0.00 91 1012.5
20260508093204 47 112 0.0 0.0 0.00 0.00 0.00 91 1012.6
20260508092703 47 112 0.0 0.0 0.00 0.00 0.00 91 1012.5
20260508092204 47 112 0.0 0.0 0.00 0.00 0.00 91 1012.5
20260508091704 47 112 0.0 0.0 0.00 0.00 0.00 90 1012.6
20260508091203 47 112 0.0 0.0 0.00 0.00 0.00 90 1012.6
20260508090704 47 112 0.0 0.0 0.00 0.00 0.00 90 1012.6
20260508090203 47 112 0.0 0.0 0.00 0.00 0.00 90 1012.6
20260508085203 47 112 0.0 0.0 0.00 0.00 0.00 91 1012.7
20260508084704 47 112 0.0 0.0 0.00 0.00 0.00 91 1012.7
20260508084204 47 103 0.0 0.0 0.00 0.00 0.00 91 1012.7
20260508083704 47 93 0.0 0.0 0.00 0.00 0.00 91 1012.7
20260508083204 47 93 0.0 0.0 0.00 0.00 0.00 90 1012.8
20260508082704 47 93 0.0 0.0 0.00 0.00 0.00 90 1012.8
20260508082204 48 93 0.0 0.0 0.00 0.00 0.00 90 1012.9
20260508081204 48 101 0.0 0.0 0.00 0.00 0.00 90 1013.0
20260508075704 47 107 0.0 0.0 0.00 0.00 0.00 90 1013.1
20260508075203 47 107 0.0 0.0 0.00 0.00 0.00 90 1013.2
20260508074704 47 107 0.0 0.0 0.00 0.00 0.00 90 1013.2
20260508074203 47 107 0.0 0.0 0.00 0.00 0.00 90 1013.2
20260508073704 47 107 0.0 0.0 0.00 0.00 0.00 90 1013.3
20260508073204 47 107 0.0 0.0 0.00 0.00 0.00 89 1013.3
20260508072704 47 107 0.0 0.0 0.00 0.00 0.00 88 1013.4
20260508072203 48 107 0.0 0.0 0.00 0.00 0.00 88 1013.4
20260508071704 48 107 0.0 0.0 0.00 0.00 0.00 87 1013.5
20260508071203 48 107 0.0 0.0 0.00 0.00 0.00 86 1013.5
20260508070704 48 107 0.0 0.0 0.00 0.00 0.00 86 1013.5
20260508070204 49 107 0.0 0.0 0.00 0.00 0.00 85 1013.7
20260508065204 49 107 0.0 0.0 0.00 0.00 0.00 84 1013.7
20260508064703 49 107 0.0 1.0 0.00 0.00 0.00 84 1013.7
20260508064203 50 120 0.0 1.0 0.00 0.00 0.00 83 1013.7
20260508063704 50 109 0.0 1.0 0.00 0.00 0.00 83 1013.7
20260508063204 50 105 0.0 1.0 0.00 0.00 0.00 82 1013.7
20260508062704 51 122 0.0 2.0 0.00 0.00 0.00 82 1013.8
20260508062204 51 129 1.0 2.0 0.00 0.00 0.00 81 1013.9
20260508061703 51 123 1.0 3.0 0.00 0.00 0.00 81 1013.8
20260508061204 51 107 0.0 1.0 0.00 0.00 0.00 80 1014.0
20260508060703 51 110 0.0 2.0 0.00 0.00 0.00 80 1014.0
20260508055704 51 130 0.0 0.0 0.00 0.00 0.00 79 1014.1
20260508055203 51 119 0.0 0.0 0.00 0.00 0.00 79 1014.1
20260508054704 51 114 0.0 0.0 0.00 0.00 0.00 79 1014.1
20260508054204 52 110 0.0 0.0 0.00 0.00 0.00 78 1014.1
20260508053704 52 114 0.0 0.0 0.00 0.00 0.00 78 1014.0
20260508053204 52 122 0.0 0.0 0.00 0.00 0.00 77 1014.0
20260508052703 52 122 0.0 0.0 0.00 0.00 0.00 77 1014.1
20260508052204 52 124 0.0 1.0 0.00 0.00 0.00 77 1014.2
20260508051704 52 120 0.0 1.0 0.00 0.00 0.00 77 1014.2
20260508051203 52 120 0.0 1.0 0.00 0.00 0.00 77 1014.3
20260508050703 51 117 0.0 1.0 0.00 0.00 0.00 78 1014.3
20260508050204 51 93 0.0 0.0 0.00 0.00 0.00 79 1014.4
20260508045704 51 93 0.0 0.0 0.00 0.00 0.00 78 1014.4
20260508045204 52 93 0.0 0.0 0.00 0.00 0.00 78 1014.4
20260508044704 52 93 0.0 0.0 0.00 0.00 0.00 77 1014.4
20260508044204 52 203 0.0 1.0 0.00 0.00 0.00 75 1014.4
20260508043703 52 203 0.0 0.0 0.00 0.00 0.00 75 1014.4
20260508043203 52 203 0.0 0.0 0.00 0.00 0.00 75 1014.5
20260508042704 53 203 0.0 0.0 0.00 0.00 0.00 73 1014.4
20260508042203 53 203 0.0 0.0 0.00 0.00 0.00 73 1014.5
20260508041704 53 203 0.0 0.0 0.00 0.00 0.00 72 1014.4
20260508041203 53 203 0.0 0.0 0.00 0.00 0.00 72 1014.4
20260508040203 53 203 0.0 0.0 0.00 0.00 0.00 73 1014.4
20260508035704 53 203 0.0 0.0 0.00 0.00 0.00 72 1014.4
20260508035204 53 203 0.0 0.0 0.00 0.00 0.00 72 1014.5
20260508034703 54 203 0.0 0.0 0.00 0.00 0.00 71 1014.5
20260508034204 54 203 0.0 0.0 0.00 0.00 0.00 71 1014.6
20260508033703 54 203 0.0 0.0 0.00 0.00 0.00 71 1014.6
20260508033204 54 203 0.0 0.0 0.00 0.00 0.00 70 1014.6
20260508032703 54 203 0.0 0.0 0.00 0.00 0.00 70 1014.7
20260508032204 54 203 0.0 0.0 0.00 0.00 0.00 70 1014.6
20260508031704 54 203 0.0 0.0 0.00 0.00 0.00 71 1014.6
20260508030704 54 203 0.0 0.0 0.00 0.00 0.00 70 1014.5
20260508030204 55 203 0.0 0.0 0.00 0.00 0.00 69 1014.6
20260508025703 55 203 0.0 0.0 0.00 0.00 0.00 69 1014.6
20260508025204 56 203 0.0 0.0 0.00 0.00 0.00 69 1014.6
20260508024704 56 203 0.0 1.0 0.00 0.00 0.00 68 1014.5
20260508024203 56 203 0.0 1.0 0.00 0.00 0.00 67 1014.4
20260508023704 56 204 0.0 3.0 0.00 0.00 0.00 67 1014.3
20260508023203 56 188 0.0 1.0 0.00 0.00 0.00 67 1014.2
20260508022204 56 188 0.0 1.0 0.00 0.00 0.00 67 1014.1
20260508020704 56 197 0.0 0.0 0.00 0.00 0.00 71 1013.8
20260508020203 57 197 0.0 0.0 0.00 0.00 0.00 69 1013.8
20260508015704 57 197 0.0 1.0 0.00 0.00 0.00 66 1013.8
20260508015204 57 198 0.0 1.0 0.00 0.00 0.00 67 1013.7
20260508014704 58 198 0.0 0.0 0.00 0.00 0.00 66 1013.6
20260508013704 59 198 0.0 1.0 0.00 0.00 0.00 62 1013.5
20260508012703 61 192 0.0 1.0 0.00 0.00 0.00 62 1013.3
20260508012204 61 188 0.0 1.0 0.00 0.00 0.00 56 1013.2
20260508011703 62 188 0.0 1.0 0.00 0.00 0.00 55 1013.3
20260508011203 63 113 0.0 2.0 0.00 0.00 0.00 54 1013.2
20260508010704 64 175 0.0 1.0 0.00 0.00 0.00 53 1013.1
20260508010204 65 200 0.0 1.0 0.00 0.00 0.00 52 1013.2
20260508005704 67 201 0.0 0.0 0.00 0.00 0.00 51 1013.3
20260508005204 68 201 1.0 3.0 0.00 0.00 0.00 48 1013.2
20260508004704 69 187 0.0 2.0 0.00 0.00 0.00 48 1013.3
20260508003204 69 212 0.0 1.0 0.00 0.00 0.00 47 1013.2
20260508002704 69 198 0.0 2.0 0.00 0.00 0.00 47 1013.3
20260508002203 69 198 0.0 1.0 0.00 0.00 0.00 46 1013.2
20260508001704 69 193 0.0 1.0 0.00 0.00 0.00 46 1013.2
20260508000704 69 244 1.0 2.0 0.00 0.00 0.00 45 1013.2
20260508000204 69 208 1.0 3.0 0.00 0.00 0.00 45 1013.2
20260507235703 69 235 1.0 2.0 0.00 0.00 0.00 46 1013.2
20260507234704 69 218 2.0 5.0 0.00 0.00 0.00 44 1013.3
20260507234204 70 221 1.0 3.0 0.00 0.00 0.00 45 1013.3
20260507233204 69 246 2.0 3.0 0.00 0.00 0.00 44 1013.2
20260507232704 69 244 1.0 5.0 0.00 0.00 0.00 45 1013.3
20260507232204 69 239 4.0 8.0 0.00 0.00 0.00 44 1013.3
20260507230704 70 226 1.0 5.0 0.00 0.00 0.00 43 1013.4
20260507230204 69 229 2.0 9.0 0.00 0.00 0.00 44 1013.5
20260507225703 69 240 1.0 3.0 0.00 0.00 0.00 44 1013.6
20260507225203 68 234 1.0 5.0 0.00 0.00 0.00 44 1013.6
20260507224705 69 185 3.0 7.0 0.00 0.00 0.00 42 1013.7
20260507224204 69 249 3.0 8.0 0.00 0.00 0.00 44 1013.8
20260507223704 69 237 3.0 7.0 0.00 0.00 0.00 44 1013.8
20260507222703 69 239 2.0 6.0 0.00 0.00 0.00 43 1013.8
20260507222204 69 232 2.0 5.0 0.00 0.00 0.00 43 1013.9
20260507221704 69 290 3.0 6.0 0.00 0.00 0.00 43 1014.0
20260507221204 68 211 4.0 10.0 0.00 0.00 0.00 43 1014.0
20260507220204 68 216 4.0 10.0 0.00 0.00 0.00 44 1013.9
20260507214704 69 274 4.0 10.0 0.00 0.00 0.00 42 1013.9